This demonstration page uses our WeatherBlox Daily Observations layout. Learn more.

41.55636, -103.73856

Hourly Observations for December 25, 2015

Temp ( °F °C ) Dew Point ( °F °C ) Humidity (%) Winds ( mph kmh ) Pressure ( in mb ) Visibility ( mi km ) Precip ( " mm )
12:53 am 00:53 Clear 10 -12 1 -17 67 67 E 8 13 30.21 1023 10 16.09344 0 0
1:53 am 01:53 Clear 12 -11 1 -17 62 62 E 6 9 30.18 1022 10 16.09344 0 0
2:53 am 02:53 Clear 14 -10 3 -16 62 62 NE 5 7 30.18 1022 10 16.09344 0 0
3:53 am 03:53 Clear 18 -8 5 -15 58 58 ENE 7 11 30.09 1019 10 16.09344 0 0
4:53 am 04:53 Clear 18 -8 5 -15 58 58 ESE 3 6 30.06 1018 10 16.09344 0 0
5:53 am 05:53 Clear 16 -9 5 -15 62 62 ESE 5 7 30.09 1019 10 16.09344 0 0
6:53 am 06:53 Clear 16 -9 7 -14 67 67 ESE 7 11 30.09 1019 10 16.09344 0 0
7:53 am 07:53 Partly Cloudy 18 -8 9 -13 68 68 ESE 9 15 30.06 1018 10 16.09344 0 0
8:53 am 08:53 Partly Cloudy 19 -7 12 -11 73 73 ESE 13 20 30.06 1018 10 16.09344 0 0
9:53 am 09:53 Sunny 21 -6 12 -11 68 68 ESE 16 26 30.03 1017 10 16.09344 0 0
10:53 am 10:53 Sunny 23 -5 14 -10 68 68 E 8 13 30.03 1017 10 16.09344 0 0
11:15 am 11:15 Mostly Cloudy 23 -5 14 -10 68 68 E 8 13 29.97 1015 10 16.09344 0 0
11:39 am 11:39 Partly Cloudy 25 -4 16 -9 69 69 ESE 10 17 29.94 1014 10 16.09344 0 0
11:53 am 11:53 Mostly Sunny 25 -4 16 -9 69 69 ESE 9 15 29.94 1014 10 16.09344 0 0
12:21 pm 12:21 Cloudy 25 -4 18 -8 74 74 ESE 10 17 29.94 1014 10 16.09344 0 0
12:53 pm 12:53 Cloudy 27 -3 18 -8 69 69 E 7 11 29.88 1012 10 16.09344 0 0
1:53 pm 13:53 Cloudy 28 -2 19 -7 69 69 E 6 9 29.85 1011 10 16.09344 0 0
2:53 pm 14:53 Cloudy 28 -2 21 -6 74 74 ENE 7 11 29.85 1011 10 16.09344 0 0
3:21 pm 15:21 Cloudy 28 -2 21 -6 74 74 ENE 6 9 29.91 1013 10 16.09344 0 0
3:34 pm 15:34 Cloudy 28 -2 21 -6 74 74 NE 3 6 29.91 1013 10 16.09344 0 0
3:53 pm 15:53 Cloudy 28 -2 21 -6 74 74 ENE 6 9 29.91 1013 10 16.09344 0 0
4:30 pm 16:30 Cloudy 28 -2 23 -5 80 80 NE 5 7 29.91 1013 10 16.09344 0 0
4:53 pm 16:53 Cloudy 28 -2 23 -5 80 80 NE 7 11 29.91 1013 10 16.09344 0 0
5:33 pm 17:33 Cloudy with Light Snow 27 -3 23 -5 86 86 NNE 12 19 29.94 1014 2.5 4.02336 0.001 0.001
5:48 pm 17:48 Cloudy with Light Snow 27 -3 23 -5 86 86 NNE 12 19 29.94 1014 1.5 2.414016 0 0
5:53 pm 17:53 Cloudy with Light Snow 27 -3 23 -5 86 86 NNE 12 19 29.94 1014 1.25 2.01168 0.01 0.254
6:19 pm 18:19 Cloudy with Light Snow 27 -3 25 -4 93 93 N 10 17 29.94 1014 1.25 2.01168 0.01 0.254
6:47 pm 18:47 Cloudy with Light Snow 27 -3 25 -4 93 93 NNE 13 20 29.97 1015 2 3.218688 0.03 0.762
6:53 pm 18:53 Cloudy with Light Snow 27 -3 25 -4 93 93 NNE 14 22 29.97 1015 2.5 4.02336 0.03 0.762
7:27 pm 19:27 Cloudy with Light Snow 27 -3 23 -5 86 86 NNE 15 24 29.97 1015 1.25 2.01168 0.001 0.001
7:46 pm 19:46 Cloudy with Light Snow 27 -3 25 -4 93 93 NNE 15 24 29.97 1015 2.5 4.02336 0 0
7:53 pm 19:53 Cloudy with Light Snow 27 -3 25 -4 93 93 NE 16 26 29.97 1015 2 3.218688 0.01 0.254
8:13 pm 20:13 Cloudy with Light Snow 27 -3 23 -5 86 86 NE 16 26 29.97 1015 1.5 2.414016 0.001 0.001
8:36 pm 20:36 Cloudy with Light Snow 27 -3 23 -5 86 86 NE 16 26 29.97 1015 2.5 4.02336 0 0
8:53 pm 20:53 Cloudy with Light Snow 27 -3 23 -5 86 86 NE 14 22 30.03 1017 1.75 2.816352 0.001 0.001
9:36 pm 21:36 Mostly Cloudy with Scattered Snow Showers 27 -3 21 -6 80 80 NE 14 22 30.06 1018 0.75 1.207008 0.02 0.508
9:51 pm 21:51 Mostly Cloudy with Snow 25 -4 21 -6 86 86 NNE 17 28 30.06 1018 0.5 0.804672 0.03 0.762
9:52 pm 21:52 Mostly Cloudy with Snow 25 -4 21 -6 86 86 NNE 18 30 30.06 1018 0.5 0.804672 0.03 0.762
10:38 pm 22:38 Mostly Cloudy with Haze 19 -7 16 -9 86 86 N 21 33 30.15 1021 1 1.609344 0 0
10:46 pm 22:46 Mostly Cloudy with Mist and Fog 19 -7 16 -9 86 86 N 20 31 30.15 1021 0.75 1.207008 0 0
10:53 pm 22:53 Mostly Cloudy with Mist and Fog 19 -7 16 -9 86 86 N 22 35 30.15 1021 0.75 1.207008 0.01 0.254
11:05 pm 23:05 Mostly Cloudy with Mist and Fog 19 -7 16 -9 86 86 N 23 37 30.15 1021 1 1.609344 0.01 0.254
11:23 pm 23:23 Cloudy with Haze 18 -8 12 -11 79 79 N 18 30 30.18 1022 2.5 4.02336 0.01 0.254
11:46 pm 23:46 Cloudy with Haze 18 -8 12 -11 79 79 N 23 37 30.18 1022 1.5 2.414016 0 0
11:53 pm 23:53 Cloudy with Haze 18 -8 12 -11 79 79 N 24 39 30.18 1022 1.5 2.414016 0.01 0.254

Powered by AerisWeather